This is the latest recevied weather packets stored in our database for station/object K5SVV. If no packets are shown the sender has not sent any weather packets the latest 10 day(s).
| Time | Temp. | Humidity | Pressure | Rain* | Wind** | Luminosity | Snow |
|---|---|---|---|---|---|---|---|
| 1778018584 | 30° C | 72% | 1003.6 hPa | 0 mm | - | 440 W/m² | - |
| 1778018282 | 30° C | 71% | 1003.7 hPa | 0 mm | - | 497 W/m² | - |
| 1778017979 | 30° C | 72% | 1003.6 hPa | 0 mm | - | 362 W/m² | - |
| 1778017677 | 30.56° C | 71% | 1003.7 hPa | 0 mm | - | 409 W/m² | - |
| 1778017374 | 30.56° C | 71% | 1003.4 hPa | 0 mm | - | 458 W/m² | - |
| 1778017071 | 30° C | 71% | 1003.4 hPa | 0 mm | - | 491 W/m² | - |
| 1778016769 | 30° C | 71% | 1003.7 hPa | 0 mm | - | 379 W/m² | - |
| 1778016464 | 30° C | 71% | 1003.6 hPa | 0 mm | - | 507 W/m² | - |
| 1778016162 | 30.56° C | 69% | 1003.6 hPa | 0 mm | - | 414 W/m² | - |
| 1778015858 | 30.56° C | 71% | 1003.8 hPa | 0 mm | - | 534 W/m² | - |
| 1778015556 | 30.56° C | 70% | 1003.8 hPa | 0 mm | - | 470 W/m² | - |
| 1778015252 | 30° C | 72% | 1003.9 hPa | 0 mm | - | 606 W/m² | - |
| 1778014949 | 30° C | 71% | 1004 hPa | 0 mm | - | 537 W/m² | - |
| 1778014647 | 30° C | 71% | 1003.9 hPa | 0 mm | - | 609 W/m² | - |
| 1778014345 | 30° C | 71% | 1003.7 hPa | 0 mm | - | 717 W/m² | - |
| 1778014041 | 30° C | 71% | 1003.8 hPa | 0 mm | - | 454 W/m² | - |
| 1778013739 | 30° C | 70% | 1004.3 hPa | 0 mm | - | 669 W/m² | - |
| 1778013436 | 30.56° C | 70% | 1004.1 hPa | 0 mm | - | 668 W/m² | - |
| 1778013133 | 30° C | 73% | 1004.3 hPa | 0 mm | - | 715 W/m² | - |
| 1778012828 | 30° C | 71% | 1004.3 hPa | 0 mm | - | 704 W/m² | - |
| 1778012525 | 30° C | 72% | 1004.3 hPa | 0 mm | - | 787 W/m² | - |
| 1778012221 | 30° C | 73% | 1004.1 hPa | 0 mm | - | 760 W/m² | - |
| 1778011919 | 29.44° C | 71% | 1004.4 hPa | 0 mm | - | 768 W/m² | - |
| 1778011617 | 29.44° C | 74% | 1004.2 hPa | 0 mm | - | 615 W/m² | - |
| 1778011314 | 29.44° C | 73% | 1004.4 hPa | 0 mm | - | 558 W/m² | - |
* Rain latest hour (hover to see other rain measurements)
** Current wind speed in m/s (hover to see current wind gust speed)